User: anonymous   Login
Location: Unspecified
(0.0000°N, 0.0000°E)
Time: 19:45:30
(UTC+00:00)
Language:

NEE 01 PEGASUS - Orbit

View from above orbital plane
View from above orbital plane
View from above satellite
View from above satellite

Ground track
Ground track

The orbit data is extracted from the following two-line orbital elements,

1 39151U 13018B   19341.53173567  .00000108  00000-0  21290-4 0  9994
2 39151  97.9743  76.7356 0017127  10.0692 350.0859 14.80103964357146
Epoch (UTC): 07 December 2019 12:45:41
Eccentricity: 0.0017127
inclination: 97.9743°
perigee height: 617 km
apogee height: 641 km
right ascension of ascending node: 76.7356°
argument of perigee: 10.0692°
revolutions per day: 14.80103964
mean anomaly at epoch: 350.0859°
orbit number at epoch: 35714

The dashed part of the orbit path shows where the satellite is in the earth's shadow,  

DLR